Regional Weather Roundup
Issued by NWS

Home | Current Version | Previous Version | Graphics & Text | Print | Product List | Glossary On
Versions: 1 2 3 4 5 6 7 8 9 10 11 12 13 14 15 16 17 18 19 20 21 22 23 24 25 26 27 28 29 30 31 32 33 34 35 36 37 38 39 40 41 42 43 44 45 46 47 48
000
ASUS45 KCYS 070810
RWRWY

WYOMING REGIONAL WEATHER ROUNDUP
NATIONAL WEATHER SERVICE CHEYENNE WY
100 AM MST SUN FEB 07 2016

NOTE:  "FAIR" INDICATES FEW OR NO CLOUDS BELOW 12,000 FEET
WITH NO SIGNIFICANT WEATHER AND/OR OBSTRUCTIONS TO VISIBILITY.

WYZ001-070900-
YELLOWSTONE NATIONAL PARK

CITY           SKY/WX    TMP DP  RH WIND       PRES   REMARKS
LK YELLOWSTONE   N/A     20  15  81 VRB5      30.30R WCI  13
W YELLOWSTONE  NOT AVBL

$$
WYZ002>013-054>058-071-098>099-070900-
NORTHERN WYOMING

CITY           SKY/WX    TMP DP  RH WIND       PRES   REMARKS
JACKSON        FAIR      30  23  74 S12       30.33R WCI  21
CODY           MOCLDY    28  18  64 N5        30.19R WCI  23
GREYBULL       CLOUDY    36  17  46 N9        30.20R WCI  29
WORLAND        FAIR      25  19  78 SW5       30.18R WCI  19
SHERIDAN       CLOUDY    36  19  50 NW22      30.18R WCI  25
BUFFALO        CLOUDY    33  17  51 NW28G39   30.15R WCI  20
GILLETTE       CLOUDY    32  19  58 NW28G39   30.12R WCI  18
HULETT         LGT SNOW  32  25  74 W9G21     30.09F WCI  24
NEWCASTLE      FAIR      32  18  55 NW12      30.10R WCI  23

$$
WYZ014>020-022>026-101>103-070900-
CENTRAL WYOMING

CITY           SKY/WX    TMP DP  RH WIND       PRES   REMARKS
BIG PINEY      FAIR      20  15  81 NE9       30.31F WCI   9
PINEDALE       FAIR      19  18  93 NW15      30.30F WCI   5
DUBOIS         FAIR      30  16  55 W39G48    30.16S WCI  13
LANDER         FAIR      24  13  62 E9        30.16F WCI  14
RIVERTON       FAIR      31  18  58 W17       30.18R WCI  19
CASPER         FAIR      20  13  74 NW9       30.14S WCI   9
DOUGLAS        MOCLDY    26  15  63 NW6         N/A  WCI  19

$$
WYZ021-027>030-104>119-070900-
SOUTHERN WYOMING

CITY           SKY/WX    TMP DP  RH WIND       PRES   REMARKS
EVANSTON       CLOUDY    26  14  60 SW20      30.39F WCI  12
FORT BRIDGER   CLOUDY    32  18  55 SW20G28   30.38F WCI  20
ROCK SPRINGS   FAIR      28  15  58 W21       30.31F WCI  15
DIXON          FAIR      18  11  74 CALM      30.37F
RAWLINS        FAIR      24  16  71 SW31G40   30.23F WCI   7
SARATOGA       FAIR      27  19  74 SW31G40   30.23F HAZE    WCI  10
LARAMIE        FAIR      26  16  65 W26       30.14F WCI  10
CHEYENNE       FAIR      36  15  42 W25G32    30.09S WCI  24
TORRINGTON     FAIR      31  18  58 NW9       30.14S WCI  23
PINE BLUFFS    FAIR      32  21  64 N10       30.14R WCI  24

$$



USA.gov is the U.S. government's official web portal to all federal, state and local government web resources and services.